GEFSMA_500_meanwind_084.txt.gz
Wind_Speed
24 22 23 24 24 24 24 25 25 25 26 27 26 26 26 25 26 26 26 26 26 24 23 23 24 23 23 22 21 20 19 18 17 16 16 16 15 14 14 13 12 11 10
23 24 25 26 25 25 26 26 26 25 26 26 26 26 26 26 26 27 28 28 27 27 26 25 25 25 25 24 22 22 21 20 19 18 18 18 17 16 15 15 14 13 12
25 26 27 27 27 27 27 27 27 27 27 27 26 26 27 26 26 26 28 29 28 28 27 27 26 26 27 26 25 23 22 21 21 20 20 19 19 19 18 17 16 15 14
27 27 28 28 28 29 29 28 28 28 28 27 27 27 27 27 26 26 27 29 30 29 29 28 28 27 27 27 26 25 25 23 22 22 21 20 20 19 19 19 18 17 16
28 29 29 30 30 30 30 29 29 28 28 28 27 27 28 28 28 28 28 29 31 31 31 30 29 29 28 27 28 27 26 25 24 23 22 21 20 20 20 20 20 19 18
30 30 31 31 31 31 31 30 30 30 29 28 27 27 28 28 29 29 29 29 30 33 33 32 31 31 30 29 29 29 28 27 25 24 23 22 21 21 21 21 21 21 20
32 32 32 33 33 33 32 32 31 31 30 29 28 28 28 28 29 29 29 29 30 32 33 34 33 32 31 31 30 29 30 28 27 25 24 23 22 21 21 21 21 21 21
34 34 34 34 35 35 34 34 33 32 32 31 30 29 28 28 28 28 29 30 31 32 33 34 34 33 33 32 31 31 31 29 28 27 25 24 23 22 21 21 20 20 20
36 36 36 36 36 36 36 36 35 34 33 33 32 31 30 29 29 29 30 31 32 33 33 34 34 34 33 33 32 32 31 30 29 28 26 25 24 23 22 21 20 20 20
37 37 37 37 37 37 37 37 36 35 35 34 34 34 33 31 30 30 30 31 32 33 34 35 34 35 34 33 33 33 33 31 30 29 27 26 25 23 22 21 20 20 19
38 37 37 37 37 37 37 37 37 37 36 36 36 35 35 34 32 31 30 31 33 33 34 35 36 36 35 35 34 34 34 33 31 30 28 27 26 24 23 21 21 20 19
38 38 37 37 37 38 38 38 38 38 37 37 37 36 36 35 34 34 32 32 33 34 34 36 37 37 36 36 36 35 35 35 33 31 30 28 27 26 24 22 21 20 19
36 37 37 37 37 37 37 38 38 38 38 37 37 37 37 37 37 36 35 34 34 35 36 37 38 38 38 38 38 38 37 37 35 33 31 30 28 27 25 24 22 21 20
35 36 36 36 36 37 37 37 37 37 37 37 37 37 37 37 38 38 37 37 36 36 37 37 39 39 40 40 40 40 40 39 37 35 33 32 30 28 27 25 24 22 20
35 36 36 37 37 37 37 37 37 37 37 37 37 37 37 38 38 39 39 39 38 38 38 38 40 41 42 42 42 42 41 41 39 38 36 34 32 30 28 26 24 23 21
36 37 37 37 38 38 38 38 38 38 38 38 39 39 39 39 39 40 40 40 40 39 40 40 41 43 44 45 44 43 43 43 42 40 38 36 34 32 30 27 25 24 22
37 37 38 38 39 39 39 39 39 40 40 40 40 40 40 41 41 41 42 42 42 42 41 41 42 44 45 45 46 45 44 43 43 41 40 38 36 34 32 30 28 26 24
38 38 39 39 40 40 40 40 40 41 41 42 42 42 41 42 42 42 43 43 44 45 44 43 43 44 46 47 46 46 45 45 44 43 42 41 39 37 35 33 31 29 27
39 39 39 40 40 40 40 40 40 41 41 42 43 43 43 44 44 44 45 45 46 46 46 46 46 46 46 47 47 47 46 46 45 45 44 43 41 39 37 36 34 31 29
39 39 40 40 40 40 39 39 39 39 40 41 43 44 45 45 45 46 47 47 47 48 48 48 49 49 48 48 49 49 47 46 46 47 47 45 43 41 40 38 36 34 32
40 40 41 41 40 39 39 39 39 39 40 41 42 44 45 46 47 48 48 49 49 49 49 49 51 52 50 50 51 50 49 48 47 47 47 47 45 43 42 40 38 36 34
41 41 41 40 38 38 38 38 38 38 39 40 42 43 45 46 47 49 49 50 51 51 51 52 53 52 52 51 52 51 50 48 47 47 47 47 47 46 44 42 40 38 37
42 41 40 39 38 37 38 38 37 37 38 39 40 42 45 46 47 49 50 52 53 54 54 54 54 55 55 54 54 53 51 50 49 48 48 48 48 47 46 44 42 41 39
42 41 39 38 38 38 38 37 37 36 36 37 39 40 42 44 47 49 51 52 54 56 56 56 55 56 58 57 56 56 54 53 52 52 51 50 48 48 48 46 45 43 41
42 41 39 39 38 38 38 37 37 36 35 35 36 38 39 42 44 47 49 51 53 56 57 57 57 57 58 59 58 57 56 54 53 53 53 52 50 49 49 48 47 45 43
41 41 39 39 38 38 37 37 36 35 33 33 33 34 36 38 41 44 46 48 51 54 56 58 58 58 58 59 60 58 56 55 54 53 52 51 51 51 50 49 48 46 45

GEFSMA_500_meanwind_090.txt.gz
Wind_Speed
20 21 23 24 22 21 21 21 21 22 21 21 21 21 22 22 23 24 24 25 26 26 27 27 27 27 27 26 25 24 23 22 20 19 17 17 16 16 15 14 13 13 11
21 22 23 23 23 22 23 23 22 23 23 23 23 22 22 23 24 25 26 27 27 29 29 29 30 29 29 29 28 27 26 25 23 22 20 19 18 18 17 16 15 14 13
22 22 23 23 22 23 23 24 24 24 23 24 23 23 22 23 24 25 27 28 28 29 31 31 31 32 31 31 30 30 29 28 26 24 23 21 20 20 19 18 17 16 15
21 22 23 24 24 24 24 24 24 25 25 25 24 24 24 24 24 25 27 27 28 30 32 33 32 33 33 33 32 32 32 30 29 27 25 24 23 22 21 19 19 18 17
23 23 24 25 25 26 26 26 26 27 27 27 26 25 25 25 25 26 27 27 28 29 32 34 35 34 34 34 34 34 34 33 31 29 28 26 25 24 23 22 21 20 19
24 25 26 27 28 28 28 28 28 29 29 28 28 27 27 27 27 27 27 27 28 29 31 33 35 36 36 35 34 34 35 36 34 31 30 28 27 26 25 24 23 22 22
25 26 27 28 29 30 30 30 30 30 30 30 30 29 29 29 28 29 28 29 29 30 32 33 35 35 36 36 35 35 35 36 35 34 32 30 29 28 26 25 24 24 23
26 27 28 30 30 31 31 32 32 31 31 31 31 31 30 30 30 30 30 30 30 31 33 35 34 36 37 36 36 35 35 35 36 35 34 32 31 29 28 27 25 25 25
27 28 29 30 30 31 31 32 32 32 32 32 33 33 32 32 32 31 32 32 31 32 33 35 35 35 37 37 37 38 36 36 36 36 35 34 33 31 29 28 27 26 25
28 29 30 30 30 31 32 32 33 33 33 34 34 34 34 34 34 33 33 34 33 33 34 35 36 36 37 39 39 39 38 38 37 37 36 35 34 33 31 29 28 27 26
29 30 30 31 31 32 32 33 33 34 34 35 35 35 36 36 36 36 35 35 35 35 35 36 36 37 37 39 41 41 40 40 39 38 37 36 36 34 32 30 29 28 26
30 30 31 31 32 32 32 33 34 34 35 35 35 36 36 37 37 37 37 37 37 37 37 36 37 38 38 39 40 41 42 42 41 40 39 37 36 35 33 32 30 28 27
30 30 31 31 32 32 33 33 34 34 35 35 36 36 37 38 38 38 38 38 39 39 39 38 37 38 39 40 41 42 43 43 43 42 41 40 38 36 34 33 31 29 28
30 30 31 31 32 33 33 34 34 35 35 36 36 37 37 38 39 39 39 39 39 40 40 40 39 38 39 40 41 42 43 44 43 43 42 41 40 37 35 34 32 31 29
29 30 31 31 32 32 32 33 33 34 35 36 37 38 38 39 39 40 40 40 40 40 40 40 41 41 40 41 41 42 44 45 45 44 44 43 41 39 37 35 34 32 30
30 31 31 32 32 32 32 33 34 34 35 36 37 38 39 40 40 41 41 41 41 42 41 41 42 42 41 42 42 43 44 45 46 45 45 44 42 40 39 37 35 33 32
31 32 32 32 33 33 33 34 35 35 36 37 38 38 39 40 41 41 42 42 42 42 42 43 44 43 43 43 43 43 45 45 46 47 46 46 44 42 40 38 36 35 33
33 33 33 33 34 34 35 35 36 37 37 38 39 39 39 40 41 42 43 43 44 44 44 44 45 45 44 44 44 44 46 47 47 47 47 46 45 43 41 40 38 36 35
35 35 35 35 35 35 36 37 37 37 37 37 38 39 39 40 41 42 43 44 45 45 45 45 45 47 46 45 44 45 46 48 48 48 47 47 46 45 44 42 40 38 36
37 36 36 36 36 37 37 36 36 36 36 36 37 37 38 39 40 42 43 45 46 46 46 46 46 47 48 47 46 45 46 47 49 49 49 48 47 47 46 44 42 40 38
38 38 37 37 37 37 36 36 36 36 36 36 37 37 38 39 40 41 43 44 46 47 47 47 47 48 48 48 48 47 47 48 49 49 49 49 49 49 48 46 45 43 41
40 39 38 38 37 36 36 36 36 36 36 36 37 37 38 38 39 41 42 44 46 47 48 48 48 48 49 49 50 49 48 49 50 50 50 50 50 50 49 48 47 45 43
41 40 39 38 37 36 36 35 36 36 35 36 36 37 38 39 40 41 43 44 46 48 49 50 50 50 50 50 50 50 50 51 51 51 51 51 51 50 50 49 48 47 46
41 40 39 38 37 36 36 36 36 35 35 36 36 36 37 38 40 41 42 44 46 48 49 50 51 52 52 51 51 51 50 49 51 52 51 51 52 51 51 49 49 48 48
41 40 38 37 36 36 36 35 35 35 34 34 35 36 36 37 39 40 41 43 45 47 49 50 51 53 54 53 51 52 51 50 50 52 53 52 52 52 51 51 50 49 48
41 39 37 36 37 36 35 35 34 34 34 34 34 35 35 36 36 37 38 40 43 45 48 50 51 53 54 55 54 53 53 52 51 52 52 52 52 53 52 52 51 50 49

GEFSMA_500_meanwind_096.txt.gz
Wind_Speed
23 24 22 20 18 19 20 20 21 20 20 19 19 20 20 20 19 20 20 21 23 24 24 22 22 22 22 21 21 20 20 19 18 17 15 15 14 13 12 11 10 10 9
22 23 22 21 20 20 20 20 21 20 19 19 20 20 20 21 21 21 21 21 22 23 24 25 24 24 25 24 24 24 23 22 21 20 18 17 16 15 14 14 12 11 10
19 19 20 21 20 20 20 21 21 21 21 21 21 21 21 21 22 23 23 21 22 23 25 25 26 26 27 26 26 27 26 25 24 23 22 20 19 18 17 16 15 14 13
16 17 18 20 20 20 20 21 21 22 23 23 23 23 23 23 23 24 24 23 23 23 25 27 27 27 28 28 28 29 29 27 27 26 25 24 22 21 19 18 17 16 15
17 18 19 20 22 22 22 23 23 24 24 25 25 25 25 25 24 25 25 25 25 25 25 27 28 29 29 29 30 30 31 31 29 28 28 27 25 24 22 21 19 18 17
19 20 21 22 23 23 24 24 25 25 26 27 27 27 27 27 26 26 27 27 27 27 26 27 28 29 30 31 31 32 31 33 32 30 30 29 28 27 25 23 22 20 19
21 21 22 22 23 24 24 25 26 27 28 28 29 29 29 29 29 28 28 28 28 28 28 28 29 29 31 32 32 32 33 33 33 32 32 31 31 29 28 26 24 23 22
22 22 23 24 25 25 26 27 28 28 29 29 29 30 30 30 31 30 30 29 29 30 29 29 29 29 30 32 32 33 35 35 35 34 34 34 33 32 31 29 27 26 24
22 23 24 25 26 26 26 27 28 29 30 30 31 31 31 31 31 31 31 31 31 31 31 30 30 31 31 31 33 32 34 36 36 36 35 36 35 35 34 32 30 29 27
23 23 24 25 26 26 27 27 28 29 29 30 31 31 31 31 32 32 33 33 32 33 33 32 32 32 32 32 33 34 34 35 37 37 37 36 37 37 36 35 33 30 29
23 24 24 25 26 27 27 28 28 29 29 29 30 31 31 32 33 33 34 35 34 34 34 34 34 33 33 33 34 35 36 35 36 37 38 37 38 38 38 37 35 32 30
24 24 25 26 27 27 28 28 29 29 29 29 30 30 31 32 32 33 33 34 35 35 36 36 35 35 35 34 35 36 36 37 37 36 38 38 38 38 38 38 36 34 32
26 26 26 27 28 29 29 30 30 30 30 30 30 30 31 32 33 33 34 34 34 35 36 37 37 37 37 36 36 37 37 37 38 38 38 38 38 38 38 38 37 36 34
27 28 29 29 30 30 31 31 31 31 31 31 32 32 32 32 33 33 34 34 34 35 36 37 37 37 38 38 37 38 38 39 39 39 40 39 38 38 39 38 38 37 35
29 29 30 31 31 32 32 32 33 33 33 33 34 34 34 34 34 34 34 35 35 35 35 37 37 38 39 39 39 38 38 40 40 40 41 41 40 39 40 39 39 37 36
31 31 32 32 33 33 33 34 34 35 35 35 35 36 36 36 36 36 36 36 36 37 36 37 38 38 39 40 39 39 38 40 42 41 42 42 41 40 41 40 40 39 37
32 33 34 34 34 35 35 36 36 36 36 36 37 37 37 38 38 38 38 38 38 38 37 38 39 40 40 40 40 40 40 41 41 41 42 43 43 43 42 41 42 41 39
34 35 35 35 36 36 36 37 37 37 37 37 38 38 38 39 39 39 39 39 39 39 39 38 40 41 41 41 41 41 41 41 41 42 42 44 44 44 44 42 42 42 40
36 37 37 37 38 38 38 37 37 37 37 37 38 38 38 38 38 39 39 39 39 39 39 39 40 41 42 43 42 41 42 41 41 41 41 43 45 45 45 44 43 43 42
38 39 39 39 39 39 39 38 37 37 36 36 37 37 37 37 38 38 38 38 39 39 39 39 39 40 42 43 44 43 43 42 41 41 41 42 43 45 45 46 45 45 44
39 40 41 41 41 40 39 38 37 36 36 36 36 36 36 36 37 37 37 38 38 38 39 39 39 40 41 42 44 45 44 44 43 42 42 42 43 44 45 46 47 46 45
41 42 42 42 41 40 38 37 36 35 35 35 35 35 35 35 36 36 37 38 39 39 39 40 40 41 42 43 44 45 44 44 43 43 43 43 44 45 45 46 46 47 46
43 43 43 43 41 40 38 37 36 35 35 35 35 35 35 35 35 35 36 37 38 39 40 41 41 41 42 43 44 45 45 44 44 44 44 44 44 45 46 46 47 47 47
45 45 44 43 41 40 38 37 36 35 35 35 34 34 34 34 34 35 35 36 37 38 39 41 41 41 43 45 45 45 46 45 45 45 44 43 44 45 46 47 48 48 48
45 46 44 43 41 39 38 37 36 36 35 34 34 33 33 33 34 35 35 35 36 37 39 40 41 41 43 44 45 45 46 46 46 45 45 45 44 45 46 47 49 48 48
46 45 44 43 40 39 38 37 36 36 35 34 33 33 33 33 33 34 34 35 35 37 37 38 39 41 42 43 44 45 46 46 46 47 47 47 46 46 46 47 49 50 49

GEFSMA_500_meanwind_102.txt.gz
Wind_Speed
15 14 14 14 15 15 15 15 15 15 16 16 17 17 17 18 17 17 18 18 18 17 17 18 19 19 18 18 18 17 16 16 15 14 13 13 12 12 11 11 10 9 8
14 14 14 15 14 16 16 16 16 17 17 17 17 18 18 18 18 18 18 19 20 19 19 19 19 21 22 20 20 20 19 19 18 17 16 15 14 14 13 13 12 11 10
11 12 12 13 14 15 16 16 17 16 17 18 18 19 19 19 20 20 20 20 20 20 20 20 21 21 22 23 22 22 22 21 21 20 19 18 17 16 15 15 14 13 12
10 11 13 13 14 15 15 16 17 18 18 18 19 20 20 21 22 21 21 21 21 21 21 20 21 22 22 24 24 24 23 23 23 23 22 21 20 19 18 17 16 15 14
11 12 13 13 14 15 15 16 18 19 19 19 19 20 21 22 23 23 23 23 22 23 23 23 23 24 23 24 25 26 25 25 26 26 25 24 23 22 21 20 19 18 17
11 12 13 14 15 16 16 17 18 20 20 21 21 22 23 23 24 24 25 25 25 24 24 24 24 25 25 25 27 27 27 27 27 28 28 27 26 25 24 23 22 21 19
11 12 13 14 15 16 17 18 19 21 22 22 22 23 24 24 25 26 26 27 27 27 26 26 26 27 26 27 28 29 29 28 29 30 30 30 29 28 27 26 25 24 22
11 12 13 14 15 16 17 18 19 20 21 22 23 23 24 25 26 26 27 27 28 28 28 28 28 29 28 28 29 30 31 30 30 30 31 32 31 30 29 29 27 26 25
11 12 14 15 16 17 17 18 19 20 21 22 23 24 25 26 26 27 28 28 28 29 29 30 30 30 30 29 30 31 32 33 33 33 33 33 33 33 32 31 31 29 28
13 14 15 16 17 17 18 19 20 20 21 22 23 23 24 25 26 27 28 29 29 30 30 30 31 31 31 31 31 32 33 33 34 35 35 35 35 35 35 34 34 33 31
14 15 16 17 18 19 20 20 21 22 22 23 23 24 24 25 26 27 28 28 29 30 31 32 32 33 32 33 33 33 33 33 34 35 36 36 36 37 36 36 36 35 34
15 16 18 19 20 21 22 23 23 23 23 24 25 25 26 26 26 27 28 29 29 30 31 32 33 34 34 34 35 36 36 35 35 36 36 37 37 37 37 38 37 37 36
17 18 20 21 22 23 24 24 25 25 25 26 26 27 27 28 28 28 28 29 30 31 32 33 33 35 36 36 37 37 38 38 38 38 37 38 38 38 39 39 39 37 37
19 21 22 23 24 24 25 25 26 27 27 28 29 29 30 30 30 30 30 31 31 32 33 34 34 35 36 37 38 39 39 39 40 40 39 39 39 40 40 39 40 39 38
21 23 24 25 25 26 26 27 28 28 28 29 30 31 31 32 32 32 32 33 33 33 34 35 36 36 36 37 39 39 40 40 41 41 41 40 41 41 41 41 41 40 40
23 25 26 27 27 28 29 29 30 30 30 31 31 31 32 33 33 34 34 35 35 35 35 37 38 38 38 38 39 40 41 41 42 42 42 42 42 42 43 43 43 42 41
25 27 28 29 30 30 31 32 32 32 32 32 32 32 33 33 34 35 35 36 37 37 36 37 39 39 39 39 40 41 41 42 43 42 43 43 43 43 43 43 43 43 43
26 28 30 31 32 33 33 34 34 34 34 34 34 34 34 34 34 35 35 36 37 38 38 38 40 41 41 41 41 41 42 43 42 43 43 43 43 43 43 44 44 44 44
28 30 31 33 34 34 35 35 35 35 35 35 35 35 35 34 34 34 35 35 36 37 38 38 39 41 42 43 43 43 43 43 44 44 44 44 43 43 44 45 45 45 45
30 32 33 34 35 36 37 37 37 36 36 36 36 35 34 34 33 33 34 34 35 35 36 37 37 40 41 43 44 44 44 45 45 45 45 45 44 44 44 44 45 45 46
32 33 35 36 37 38 38 38 38 37 37 36 36 35 34 33 33 33 33 33 34 34 35 36 37 38 39 41 43 44 45 45 46 46 46 46 45 45 45 45 46 45 45
33 35 36 38 39 40 40 40 39 39 37 36 35 34 33 33 33 33 33 33 33 33 34 35 36 37 38 40 41 42 44 45 46 47 47 47 47 46 46 46 46 46 46
34 36 38 39 40 41 41 41 40 39 37 36 35 34 33 33 33 33 32 32 33 33 33 34 35 36 38 40 41 42 43 44 45 47 47 47 47 46 46 46 47 47 47
36 37 39 40 42 42 42 41 40 39 37 36 35 34 33 33 33 33 32 32 33 33 33 33 34 35 37 39 41 42 43 43 44 46 47 47 48 48 47 46 47 48 48
38 39 40 42 42 43 42 41 40 38 37 36 35 34 34 33 33 33 32 32 32 33 33 33 33 34 36 38 40 41 42 43 44 46 47 47 48 49 48 47 47 48 49
39 40 41 42 43 43 42 41 40 38 37 36 35 35 34 34 33 33 32 32 32 32 33 33 33 34 35 37 39 40 41 43 43 45 47 47 47 48 48 48 47 48 49

GEFSMA_500_meanwind_108.txt.gz
Wind_Speed
12 13 13 13 13 13 13 14 13 13 13 13 13 14 14 14 14 14 15 15 15 16 17 17 17 17 18 17 17 17 17 16 16 15 14 14 13 12 11 11 10 9 8
12 12 11 11 12 12 14 14 14 14 14 14 14 14 15 15 15 15 16 17 17 17 18 18 19 19 19 19 19 20 20 19 19 18 17 16 15 14 13 13 12 11 10
10 10 10 10 11 12 13 14 14 15 15 15 15 15 16 16 16 17 17 18 18 18 19 20 21 21 21 21 22 22 22 21 21 21 20 19 18 17 16 15 14 13 12
9 9 9 10 11 12 13 14 14 15 16 17 17 17 17 18 18 19 19 19 20 20 20 21 22 23 22 22 23 24 24 24 23 23 23 22 21 20 19 18 17 15 14
9 9 10 10 11 12 12 13 14 15 15 16 17 18 18 19 19 20 20 20 21 21 22 22 23 24 24 24 24 25 26 26 25 25 25 25 24 23 22 21 19 18 17
9 9 9 10 11 11 11 12 14 15 15 16 17 18 19 19 20 20 21 22 22 23 23 24 24 25 26 25 26 27 27 27 27 27 27 27 27 26 25 24 23 21 20
8 8 9 9 10 11 12 13 14 15 16 17 18 19 19 20 21 22 22 23 23 24 24 25 26 27 28 27 27 29 28 28 29 29 29 29 29 28 28 27 26 24 23
6 7 7 8 10 11 12 14 15 16 17 17 18 19 20 21 21 22 23 24 24 25 26 27 27 28 29 29 29 29 30 30 31 32 31 31 31 31 30 30 29 27 26
6 6 7 8 10 12 13 14 15 16 17 18 19 20 21 21 22 22 23 24 25 25 26 27 28 29 30 30 31 31 32 31 33 33 33 33 32 32 33 32 32 30 29
6 7 8 10 11 13 14 15 16 17 18 19 20 20 21 22 23 23 24 24 25 26 26 27 29 30 31 31 32 33 33 34 34 35 35 35 35 34 34 34 34 33 32
7 8 9 11 13 14 15 16 17 18 19 19 20 21 22 23 23 24 25 25 26 27 27 28 29 30 31 32 33 35 35 35 36 36 37 37 37 36 36 35 36 35 35
8 9 11 12 14 16 17 18 18 19 20 21 21 21 22 23 24 25 26 27 28 28 29 30 30 31 32 33 34 35 36 37 37 37 38 38 39 38 37 37 37 37 36
9 10 12 14 15 17 18 19 19 20 21 22 22 23 23 24 24 25 27 28 29 30 31 32 32 33 34 34 35 35 36 37 38 39 39 39 40 40 39 38 38 38 38
9 11 13 15 17 18 19 20 21 21 22 23 24 25 25 25 26 26 27 28 29 31 32 34 34 35 35 36 36 37 38 38 39 40 40 40 40 41 41 40 40 40 40
10 12 14 16 17 19 20 21 22 23 24 25 26 26 27 27 28 28 28 29 29 30 32 34 35 36 37 37 38 39 40 40 40 41 41 42 42 42 42 42 42 42 42
13 15 17 18 19 20 21 23 24 25 26 27 28 28 28 29 29 29 30 30 30 30 31 33 35 36 37 38 39 40 41 41 42 42 42 43 43 44 43 43 44 43 43
15 17 19 20 21 22 23 24 26 27 29 29 30 30 30 30 30 30 31 31 31 30 31 32 35 37 38 38 39 40 41 42 43 43 43 43 44 45 45 45 45 45 44
17 19 20 22 23 24 25 27 28 30 31 31 31 32 32 32 32 32 32 32 32 32 32 32 34 36 37 39 40 40 41 42 43 45 45 45 45 46 46 46 46 46 45
19 21 22 24 25 27 28 29 30 31 32 33 33 33 33 33 33 33 33 32 32 32 33 33 33 35 37 38 39 40 42 43 44 45 46 47 47 47 48 47 47 47 47
22 23 24 26 27 29 30 31 32 33 34 34 35 35 34 34 34 34 34 33 33 33 33 33 33 34 36 37 38 39 41 42 44 45 47 48 48 48 49 49 49 48 48
24 25 27 28 29 30 31 32 33 34 35 36 36 36 36 35 35 35 35 34 34 34 33 33 33 33 35 36 37 39 40 41 42 44 46 48 49 49 49 49 49 49 49
26 28 29 30 31 32 33 34 34 35 36 37 37 37 37 36 36 36 36 35 34 34 33 33 33 33 34 35 35 37 39 40 42 44 46 47 49 50 50 50 50 50 50
29 30 31 32 33 33 34 35 36 37 37 38 38 38 38 37 37 36 36 35 35 34 34 34 33 33 34 35 35 36 37 38 40 43 44 45 48 49 51 52 52 51 51
31 31 32 34 34 35 35 36 38 38 38 39 39 39 38 38 37 36 35 35 35 35 35 34 34 34 34 35 36 36 37 37 38 41 43 43 46 48 50 52 52 52 51
33 33 35 36 36 36 37 38 39 39 39 40 41 40 39 38 37 37 36 35 35 35 35 35 35 35 35 36 36 36 37 37 38 39 42 43 44 47 48 50 52 53 52
35 36 37 37 38 38 39 39 40 40 41 41 41 41 40 38 38 37 36 36 35 35 35 35 34 34 34 35 36 36 36 37 37 38 40 42 44 46 47 48 50 51 52

GEFSMA_500_meanwind_114.txt.gz
Wind_Speed
10 10 8 8 7 7 7 7 7 8 8 8 9 10 11 12 12 13 13 14 14 15 16 17 17 18 18 17 17 17 18 17 16 15 15 14 14 13 13 12 12 11 10
9 8 7 7 6 6 7 7 8 8 8 8 9 10 11 12 13 14 14 15 16 16 17 17 18 19 20 19 19 19 19 19 19 18 18 17 16 16 15 14 13 13 12
8 7 6 6 6 6 6 7 8 8 8 9 10 10 11 12 13 14 15 16 17 18 18 19 19 20 20 21 21 21 21 21 20 21 21 20 19 19 18 17 16 15 14
6 5 5 5 5 5 6 6 7 8 8 9 10 11 11 12 13 14 16 17 18 19 19 20 20 21 22 23 22 23 23 23 23 23 23 23 22 22 21 20 19 17 16
5 4 4 4 4 5 5 6 7 8 9 10 11 12 12 12 12 14 15 17 18 19 20 21 21 22 23 23 24 24 25 24 24 26 25 25 25 25 24 23 22 20 19
3 3 3 3 4 4 5 6 7 7 9 9 10 11 12 13 13 14 15 17 18 19 20 21 21 23 24 25 26 27 27 26 26 26 27 27 27 27 27 26 25 24 22
3 2 2 3 3 4 5 6 7 8 9 10 11 12 12 13 14 15 16 17 18 19 21 22 23 23 24 25 26 27 28 28 28 27 28 30 29 30 29 28 28 27 26
2 2 2 2 2 4 5 6 7 8 9 10 11 12 13 14 15 16 17 18 19 20 21 22 23 24 25 25 26 28 28 28 29 29 29 29 30 31 31 30 29 29 28
2 1 1 2 3 4 5 7 8 9 10 11 11 12 13 14 15 16 17 18 19 21 22 22 23 25 25 26 27 28 29 29 29 30 31 31 31 31 33 33 32 31 31
1 0 1 2 3 5 6 8 9 10 10 11 11 12 13 14 15 15 17 18 19 21 22 24 24 25 26 27 28 29 30 31 31 31 32 33 33 33 33 34 34 33 33
1 0 1 2 3 5 7 8 9 10 11 12 12 13 14 15 16 16 17 18 19 20 22 23 25 26 27 28 29 29 31 32 32 33 34 34 35 35 34 34 36 36 36
1 1 2 3 4 6 8 9 10 11 12 12 13 14 15 16 17 17 18 19 20 21 22 23 24 26 27 29 30 31 32 33 34 34 35 36 36 36 36 37 37 37 38
2 2 3 5 6 8 9 10 11 12 13 14 15 15 16 17 18 19 20 21 22 23 23 24 25 26 28 29 30 32 33 35 36 36 36 37 37 38 38 38 38 38 38
4 5 6 7 8 9 10 11 12 13 14 16 16 17 18 19 20 21 22 22 23 24 24 25 26 27 28 30 31 32 34 35 36 37 37 38 38 39 39 39 39 39 39
7 8 9 10 11 11 12 13 14 15 17 18 18 19 20 21 22 23 23 23 24 25 26 26 27 28 28 30 30 32 33 34 36 37 38 39 39 40 41 41 41 41 42
10 10 11 12 13 13 14 15 16 17 19 20 21 22 22 23 24 24 24 25 25 26 26 27 28 28 29 29 30 31 33 34 36 37 39 40 41 42 42 43 43 43 43
13 13 13 14 15 16 17 18 19 20 21 22 23 23 24 25 25 25 26 26 26 27 27 28 29 30 30 30 30 31 32 34 35 37 38 40 42 43 43 44 45 45 45
15 16 16 17 18 19 19 20 21 22 23 24 25 25 26 27 27 27 28 28 28 28 28 29 30 30 31 31 31 32 32 34 35 37 38 40 41 43 44 45 46 47 47
19 19 20 20 21 21 22 23 24 25 25 26 26 27 28 28 29 30 30 30 30 30 30 30 30 31 32 32 32 32 33 34 35 37 38 40 42 43 44 46 46 47 48
22 22 23 23 24 24 25 25 26 26 27 27 28 29 29 30 31 31 31 32 32 31 31 31 31 32 32 33 33 33 34 34 35 36 37 39 41 43 44 45 46 47 48
24 25 25 26 26 27 27 27 28 28 29 29 30 30 31 32 32 33 33 33 33 33 33 33 33 33 33 34 34 34 34 35 35 36 37 38 40 42 43 45 46 48 49
27 27 28 28 28 28 29 29 29 30 31 31 31 32 33 33 34 34 35 35 35 35 35 35 34 34 34 35 35 35 35 35 36 37 37 37 39 40 42 44 45 47 48
29 29 30 30 30 30 30 31 31 32 32 33 33 34 34 35 35 36 36 36 36 36 36 36 36 35 35 36 35 35 35 36 36 37 38 38 39 39 40 42 44 46 48
30 30 30 31 31 32 32 32 33 33 34 34 35 36 36 37 37 37 37 38 38 38 38 37 36 36 36 36 36 35 35 35 36 37 37 38 39 40 40 41 42 44 46
31 31 32 32 32 33 33 34 34 35 35 36 37 38 38 38 39 39 39 39 39 39 39 38 38 38 38 37 37 36 36 36 36 37 38 38 38 39 40 41 42 43 45
32 33 33 33 34 35 35 36 37 37 37 38 38 39 40 40 41 41 41 40 40 40 40 40 39 39 39 39 38 37 37 37 37 37 38 38 38 38 38 40 41 43 45

GEFSMA_500_meanwind_120.txt.gz
Wind_Speed
10 9 8 7 7 7 7 8 6 6 7 7 8 8 9 10 11 9 10 11 11 11 11 12 12 12 13 14 14 15 14 14 14 13 12 12 11 10 9 9 9 8 7
9 7 6 6 5 5 5 4 5 6 6 6 6 7 8 9 10 11 11 12 13 13 13 13 13 14 14 14 15 16 16 17 17 16 15 14 14 13 12 12 11 11 10
6 5 4 4 4 4 4 4 4 4 4 4 4 5 6 7 9 10 11 12 12 13 13 14 14 15 16 16 16 17 17 18 18 18 18 17 17 16 15 14 14 13 12
5 4 4 4 3 3 2 3 3 3 4 4 4 5 6 7 9 10 11 12 12 14 14 15 15 16 17 17 17 18 18 18 19 19 19 20 20 19 18 17 16 16 15
5 4 4 3 2 2 2 2 2 3 4 4 5 6 7 7 9 10 10 11 12 13 14 15 16 17 17 17 18 18 20 20 21 20 20 21 21 21 21 21 19 18 18
5 5 4 3 2 2 2 2 3 3 4 5 6 7 7 8 9 9 10 11 12 13 14 15 16 16 17 18 19 19 20 21 22 22 22 22 22 22 23 23 23 22 20
6 5 3 1 0 1 2 2 3 4 5 6 6 7 8 8 9 10 10 11 12 13 14 14 15 16 17 18 19 20 20 21 22 23 23 23 23 23 24 25 25 24 23
5 3 2 1 0 1 2 3 3 4 5 6 7 7 8 8 9 10 11 11 12 13 14 15 16 17 18 18 19 19 20 22 23 23 24 24 25 25 25 25 27 26 26
4 4 3 1 0 1 2 3 4 5 6 7 7 8 9 9 9 10 11 12 13 14 15 16 16 17 18 18 19 21 21 22 23 24 25 25 25 25 25 26 26 28 28
5 4 2 1 0 2 3 3 4 6 7 8 8 9 10 11 11 11 12 13 14 15 15 16 17 17 18 19 19 21 22 22 23 24 25 25 25 25 26 26 27 28 29
6 4 2 1 1 2 3 4 5 7 7 8 9 10 11 12 12 13 13 14 14 15 16 17 18 18 19 19 20 21 22 23 23 24 25 26 27 27 27 27 28 28 29
5 4 2 1 2 3 4 5 6 7 8 9 10 11 12 13 14 15 15 16 16 16 17 18 19 19 20 20 21 22 23 24 24 25 26 27 28 28 29 29 29 29 29
5 3 3 3 3 4 5 6 7 8 9 10 12 13 14 15 16 16 17 17 18 18 18 18 19 20 21 21 22 23 23 24 25 26 27 27 29 30 30 30 31 31 31
5 5 5 5 5 6 7 8 9 10 11 13 14 15 16 17 18 18 19 19 19 20 20 20 20 21 22 23 23 24 24 25 26 27 28 28 29 30 31 32 32 33 32
7 7 7 7 8 9 10 11 12 13 14 15 16 17 19 19 20 21 21 21 21 21 22 22 22 22 23 23 24 24 25 26 26 27 28 29 30 30 31 32 33 33 34
9 9 10 10 11 12 13 14 14 16 17 18 19 20 21 21 22 22 23 23 23 23 24 24 24 24 24 24 25 25 25 26 27 28 28 29 30 31 32 33 33 34 35
11 12 13 14 15 15 16 17 18 19 20 21 22 23 23 23 23 24 24 24 25 25 25 26 26 26 26 26 26 26 26 26 27 28 29 29 30 31 32 33 34 34 35
14 15 16 17 18 18 19 20 21 22 23 24 24 25 25 25 25 26 26 26 26 26 27 27 28 28 28 28 28 27 28 28 28 28 29 30 30 31 32 33 34 35 36
17 18 19 20 20 21 22 23 24 25 26 26 26 27 27 26 26 27 27 28 28 28 28 29 29 30 30 30 29 29 29 29 28 29 29 30 31 32 32 33 34 35 36
20 21 22 23 23 24 25 26 27 27 28 28 28 28 28 28 28 28 29 29 30 30 30 30 31 31 31 31 31 31 31 30 30 30 30 30 31 32 33 34 34 35 37
23 24 25 25 26 27 28 28 29 29 30 30 30 30 30 30 30 30 31 31 31 32 32 32 32 33 33 33 33 33 32 31 31 32 31 31 31 32 33 34 35 36 37
25 26 27 27 28 29 30 30 31 31 31 31 32 32 32 32 32 33 33 33 33 34 34 34 34 35 35 35 35 35 34 33 33 33 33 32 33 32 33 34 35 36 37
27 28 29 29 30 31 32 32 33 33 33 33 33 33 33 34 34 34 35 35 36 36 36 36 36 36 37 37 37 36 36 35 34 35 35 34 34 34 33 34 35 36 37
30 30 31 32 33 33 34 34 35 35 35 35 35 35 35 36 37 37 37 37 37 37 38 38 37 38 38 38 38 38 37 37 36 36 37 36 35 35 35 35 36 37 37
31 33 34 34 34 34 35 36 37 36 36 36 37 37 38 38 38 39 39 39 38 38 39 39 38 38 39 39 39 39 39 39 38 38 39 38 37 36 36 36 36 37 37
32 33 34 34 35 36 36 37 37 38 38 39 39 39 39 39 39 40 40 40 39 40 40 40 41 41 41 40 41 41 41 40 40 39 40 40 38 38 37 37 37 37 37